Location: Unspecified
(43.0000°N, 0.0000°E)
Time: 13:37:13
(UTC+00:00)

PicSat - Pass Details

Date: 22 August 2020
Orbit: 482 x 496 km, 97.4° (Epoch: 21 September)

Event Time Altitude Azimuth Distance (km) Brightness Sun altitude
Exits shadow 21:54:22 27° 352° (N) 993 ? -28.2°
Drops below altitude 10° 21:56:06 10° 350° (N) 1,698 ? -28.4°
Sets 21:58:11 0° 349° (N) 2,583 ? -28.6°
